EN

Hourly Weather Paray-le-Monial

Today, 21 April, Wednesday

Time Temperature Precipitation Wind Pressure Humidity
00:00 +8°C° 0 mm 1 mps 738 mmHg 98%
01:00 +8°C° 0.7 mm 1 mps 738 mmHg 98%
02:00 +8°C° 0.7 mm 1 mps 738 mmHg 98%
03:00 +8°C° 0.7 mm 1 mps 738 mmHg 97%
04:00 +8°C° 0.1 mm 1 mps 738 mmHg 97%
05:00 +8°C° 0.1 mm 1 mps 738 mmHg 96%
06:00 +9°C° 0.1 mm 1 mps 738 mmHg 96%
07:00 +10°C° 0.2 mm 1 mps 738 mmHg 92%
08:00 +11°C° 0.2 mm 1 mps 738 mmHg 88%
09:00 +12°C° 0.2 mm 2 mps 738 mmHg 85%
10:00 +12°C° 0.3 mm 2 mps 738 mmHg 82%
11:00 +12°C° 0.3 mm 2 mps 738 mmHg 80%
12:00 +12°C° 0.3 mm 2 mps 738 mmHg 78%
13:00 +13°C° 0.1 mm 2 mps 738 mmHg 76%
14:00 +13°C° 0.1 mm 2 mps 738 mmHg 74%
15:00 +13°C° 0.1 mm 2 mps 738 mmHg 72%
16:00 +13°C° 0 mm 2 mps 738 mmHg 75%
17:00 +12°C° 0 mm 2 mps 738 mmHg 79%
18:00 +11°C° 0 mm 1 mps 738 mmHg 82%
19:00 +10°C° 0 mm 1 mps 738 mmHg 86%
20:00 +9°C° 0 mm 1 mps 739 mmHg 91%
21:00 +7°C° 0 mm 1 mps 739 mmHg 95%
22:00 +7°C° 0 mm 1 mps 739 mmHg 95%
23:00 +7°C° 0 mm 1 mps 739 mmHg 95%

Tomorrow, 22 April, Thursday

Time Temperature Precipitation Wind Pressure Humidity
00:00 +7°C° 0 mm 1 mps 739 mmHg 96%
01:00 +6°C° 0 mm 1 mps 739 mmHg 96%
02:00 +6°C° 0 mm 1 mps 739 mmHg 96%
03:00 +6°C° 0 mm 1 mps 740 mmHg 96%
04:00 +6°C° 0 mm 1 mps 740 mmHg 96%
05:00 +7°C° 0 mm 1 mps 740 mmHg 95%
06:00 +7°C° 0 mm 1 mps 740 mmHg 94%
07:00 +10°C° 0 mm 1 mps 741 mmHg 84%
08:00 +13°C° 0 mm 1 mps 741 mmHg 73%
09:00 +15°C° 0 mm 1 mps 741 mmHg 62%
10:00 +16°C° 0 mm 2 mps 741 mmHg 58%
11:00 +17°C° 0 mm 2 mps 741 mmHg 53%
12:00 +18°C° 0 mm 2 mps 741 mmHg 49%
13:00 +18°C° 0 mm 2 mps 741 mmHg 50%
14:00 +18°C° 0 mm 2 mps 740 mmHg 52%
15:00 +18°C° 0 mm 3 mps 740 mmHg 53%
16:00 +17°C° 0 mm 3 mps 741 mmHg 59%
17:00 +16°C° 0 mm 3 mps 741 mmHg 65%
18:00 +14°C° 0 mm 3 mps 741 mmHg 70%
19:00 +12°C° 0 mm 3 mps 742 mmHg 73%
20:00 +12°C° 0 mm 2 mps 742 mmHg 76%
21:00 +9°C° 0 mm 2 mps 743 mmHg 79%
22:00 +8°C° 0 mm 2 mps 743 mmHg 80%
23:00 +8°C° 0 mm 1 mps 743 mmHg 80%

Day after tomorrow, 23 April, Friday

Time Temperature Precipitation Wind Pressure Humidity
00:00 +6°C° 0 mm 1 mps 743 mmHg 80%
01:00 +6°C° 0 mm 1 mps 743 mmHg 81%
02:00 +5°C° 0 mm 1 mps 743 mmHg 81%
03:00 +4°C° 0 mm 1 mps 743 mmHg 82%
04:00 +4°C° 0 mm 1 mps 743 mmHg 80%
05:00 +5°C° 0 mm 1 mps 744 mmHg 77%
06:00 +4°C° 0 mm 0 mps 744 mmHg 75%
07:00 +8°C° 0 mm 1 mps 744 mmHg 66%
08:00 +10°C° 0 mm 2 mps 744 mmHg 56%
09:00 +12°C° 0 mm 3 mps 744 mmHg 47%
10:00 +14°C° 0 mm 3 mps 744 mmHg 44%
11:00 +16°C° 0 mm 3 mps 743 mmHg 41%
12:00 +17°C° 0 mm 3 mps 743 mmHg 38%
13:00 +17°C° 0 mm 3 mps 743 mmHg 39%
14:00 +18°C° 0 mm 3 mps 743 mmHg 40%
15:00 +18°C° 0 mm 3 mps 743 mmHg 42%
16:00 +16°C° 0 mm 3 mps 743 mmHg 48%
17:00 +14°C° 0 mm 3 mps 743 mmHg 55%
18:00 +14°C° 0 mm 2 mps 743 mmHg 61%
19:00 +12°C° 0 mm 2 mps 743 mmHg 66%
20:00 +9°C° 0 mm 2 mps 743 mmHg 72%
21:00 +9°C° 0 mm 1 mps 743 mmHg 78%
22:00 +8°C° 0 mm 1 mps 743 mmHg 80%
23:00 +7°C° 0 mm 1 mps 743 mmHg 83%

24 April, Saturday

Time Temperature Precipitation Wind Pressure Humidity
00:00 +6°C° 0 mm 1 mps 743 mmHg 86%
01:00 +5°C° 0 mm 1 mps 743 mmHg 87%
02:00 +5°C° 0 mm 1 mps 743 mmHg 88%
03:00 +4°C° 0 mm 1 mps 743 mmHg 88%
04:00 +5°C° 0 mm 1 mps 743 mmHg 85%
05:00 +6°C° 0 mm 1 mps 743 mmHg 82%
06:00 +6°C° 0 mm 1 mps 743 mmHg 79%
07:00 +9°C° 0 mm 1 mps 743 mmHg 69%
08:00 +12°C° 0 mm 1 mps 743 mmHg 59%
09:00 +15°C° 0 mm 1 mps 743 mmHg 50%
10:00 +18°C° 0 mm 1 mps 742 mmHg 46%
11:00 +18°C° 0 mm 2 mps 742 mmHg 42%
12:00 +20°C° 0 mm 2 mps 742 mmHg 37%
13:00 +20°C° 0 mm 2 mps 741 mmHg 38%
14:00 +21°C° 0 mm 2 mps 741 mmHg 38%
15:00 +21°C° 0 mm 2 mps 741 mmHg 39%
16:00 +19°C° 0 mm 2 mps 741 mmHg 47%
17:00 +18°C° 0 mm 3 mps 741 mmHg 56%
18:00 +16°C° 0 mm 3 mps 741 mmHg 64%
19:00 +14°C° 0 mm 2 mps 741 mmHg 70%
20:00 +12°C° 0 mm 2 mps 741 mmHg 75%
21:00 +10°C° 0 mm 2 mps 741 mmHg 80%
22:00 +9°C° 0 mm 2 mps 741 mmHg 82%
23:00 +9°C° 0 mm 1 mps 741 mmHg 85%

25 April, Sunday

Time Temperature Precipitation Wind Pressure Humidity
00:00 +9°C° 0 mm 1 mps 741 mmHg 87%
01:00 +8°C° 0 mm 1 mps 741 mmHg 89%
02:00 +8°C° 0 mm 1 mps 740 mmHg 90%
03:00 +7°C° 0 mm 1 mps 740 mmHg 91%
04:00 +8°C° 0 mm 1 mps 740 mmHg 89%
05:00 +8°C° 0 mm 1 mps 740 mmHg 86%
06:00 +9°C° 0 mm 1 mps 740 mmHg 84%
07:00 +12°C° 0 mm 2 mps 740 mmHg 74%
08:00 +15°C° 0 mm 2 mps 740 mmHg 64%
09:00 +18°C° 0 mm 2 mps 740 mmHg 53%
10:00 +19°C° 0 mm 3 mps 739 mmHg 49%
11:00 +20°C° 0 mm 3 mps 739 mmHg 45%
12:00 +22°C° 0 mm 3 mps 739 mmHg 41%
13:00 +22°C° 0 mm 3 mps 738 mmHg 42%
14:00 +22°C° 0 mm 3 mps 738 mmHg 43%
15:00 +22°C° 0 mm 3 mps 737 mmHg 44%
16:00 +21°C° 0 mm 3 mps 737 mmHg 50%
17:00 +19°C° 0 mm 3 mps 737 mmHg 56%
18:00 +18°C° 0 mm 3 mps 737 mmHg 62%
19:00 +16°C° 0 mm 2 mps 737 mmHg 65%
20:00 +15°C° 0 mm 2 mps 737 mmHg 67%
21:00 +13°C° 0 mm 2 mps 737 mmHg 70%
22:00 +12°C° 0 mm 2 mps 737 mmHg 71%
23:00 +10°C° 0 mm 2 mps 737 mmHg 71%

26 April, Monday

Time Temperature Precipitation Wind Pressure Humidity
00:00 +10°C° 0 mm 1 mps 737 mmHg 72%
01:00 +10°C° 0 mm 1 mps 737 mmHg 73%
02:00 +11°C° 0 mm 1 mps 736 mmHg 75%
03:00 +11°C° 0 mm 1 mps 736 mmHg 77%
04:00 +11°C° 0 mm 1 mps 736 mmHg 75%
05:00 +12°C° 0 mm 1 mps 736 mmHg 73%
06:00 +12°C° 0 mm 1 mps 736 mmHg 72%
07:00 +14°C° 0 mm 1 mps 736 mmHg 65%
08:00 +16°C° 0 mm 2 mps 736 mmHg 58%
09:00 +17°C° 0 mm 2 mps 735 mmHg 51%
10:00 +18°C° 0 mm 2 mps 735 mmHg 53%
11:00 +18°C° 0 mm 2 mps 735 mmHg 55%
12:00 +18°C° 0 mm 2 mps 734 mmHg 57%
13:00 +19°C° 0.1 mm 1 mps 734 mmHg 62%
14:00 +18°C° 0.1 mm 1 mps 733 mmHg 67%
15:00 +18°C° 0.1 mm 1 mps 733 mmHg 72%
16:00 +16°C° 0.2 mm 1 mps 733 mmHg 77%
17:00 +15°C° 0.2 mm 1 mps 733 mmHg 83%
18:00 +14°C° 0.2 mm 1 mps 732 mmHg 88%
19:00 +14°C° 0.4 mm 1 mps 733 mmHg 90%
20:00 +13°C° 0.4 mm 1 mps 733 mmHg 92%
21:00 +13°C° 0.4 mm 2 mps 733 mmHg 94%
22:00 +13°C° 0.4 mm 1 mps 733 mmHg 94%
23:00 +12°C° 0.4 mm 1 mps 733 mmHg 94%
Show more

We Need Your Consent

Meteoprog and our Service Providers may store and access personal data such as cookies, device identifiers or other similar technologies on your device and process such data to personalise content and ads, as well as provide social media features and to analyse the traffic.

  • Store and/or access information on your device

    Cookies, device identifiers or other information can be stored or accessed on your device for the purposes indicated above.

  • Personalised ads and content, ad and content measurement, audience insights, and products development

    Ads and content can be personalised based on a profile. More data can be added to better personalise ads and content. Ad and content performance can be measured. Insights about the audience who saw the ads and content can be derived. Such data can be used to develop or improve user’s experience, systems and software.

By clicking ‘I Agree’ you will allow the use of indicated cookies, device identifiers, web beacons or other similar technologies. Your settings can be changed in the browser on your device.

For certain purposes, legitimate interests may be relied on, rather than consent. You can read more about this in our Privacy and Cookie Policy.